#timestamp,LO_Frequency,Hit,StdDev 
1505649615.5,286046999.1,N
1505649635.3,286046997.8,N
1505649655.1,286046995.4,N
1505649675.9,286046997.3,N
1505649695.7,286046999.9,N
1505649715.5,286047000.9,N
1505649735.3,286046996.9,N
1505649755.2,286046994.0,Y
1505649775.0,286046997.4,P
1505649775.9,286046997.4,N
1505649795.8,286046999.5,N
1505649815.6,286046998.5,N
1505649835.4,286046995.8,Y
1505649855.3,286046998.3,P
1505649875.1,286046996.6,P
1505649876.0,286046996.6,P
1505649895.8,286046999.1,N
1505649915.7,286046999.4,N
1505649935.5,286046999.6,N
1505649955.3,286046997.7,N
1505649975.1,286046997.0,N
1505649995.9,286046998.8,N
1505650015.7,286046997.4,N
1505650035.5,286046997.2,N
1505650055.4,286046995.6,Y
1505650075.2,286047000.5,P
1505650095.0,286047000.6,N
1505650095.9,286047000.6,N
1505650115.8,286047001.1,N
1505650135.6,286046998.5,N
1505650155.4,286047001.4,N
1505650175.3,286047001.1,N
1505650195.1,286047000.3,N
1505650196.0,286047000.3,N
1505650215.8,286047001.0,N
1505650235.7,286046999.1,N
1505650255.5,286046999.8,N
1505650275.3,286047000.4,N
1505650295.2,286046999.8,N
1505650315.9,286046999.6,N
1505650335.7,286047000.4,N
1505650355.6,286047002.4,N
1505650375.4,286047002.5,N
1505650395.2,286047000.6,N
1505650415.0,286047001.8,N
1505650416.0,286047001.8,N
1505650435.8,286046998.5,N
1505650455.6,286047002.2,N
1505650475.4,286047001.8,N
1505650495.3,286047005.8,Y
1505650515.1,286047003.7,P
1505650535.8,286047001.6,N
1505650555.7,286046999.9,N
1505650575.5,286047003.4,N
1505650595.3,286047006.1,Y
1505650615.2,286047002.1,P
1505650635.0,286046999.8,N
1505650635.9,286046999.8,N
1505650655.7,286047001.6,N
1505650675.6,286047001.4,N
1505650695.4,286047002.8,N
1505650715.2,286047002.7,N
1505650735.1,286047002.6,N
1505650736.0,286047002.6,N
1505650755.8,286046998.5,N
1505650775.6,286047003.4,N
1505650795.5,286047007.5,Y
1505650815.3,286047006.0,P
1505650835.1,286047004.1,N
1505650855.9,286047000.7,N
1505650875.7,286046998.1,N
1505650895.5,286047000.0,N
1505650915.4,286047001.3,N
1505650935.2,286047000.3,N
1505650955.0,286047000.8,N
1505650955.9,286047000.8,N
1505650975.8,286046997.4,N
1505650995.6,286046994.1,N
1505651015.4,286046994.8,N
1505651035.3,286046994.4,N
1505651055.1,286046992.2,N
1505651056.0,286046992.2,N
1505651075.8,286046994.8,N
1505651095.7,286046996.1,N
1505651115.5,286046996.7,N
1505651135.3,286046997.3,N
1505651155.1,286046997.1,N
1505651175.9,286046993.7,N
1505651195.7,286046997.8,N
1505651215.5,286046996.8,N
1505651235.4,286046997.4,N
1505651255.2,286046996.1,N
1505651275.0,286046995.4,N
1505651275.9,286046995.4,N
1505651295.8,286046993.3,N
1505651315.6,286046995.4,N
1505651335.4,286046996.8,N
1505651355.3,286046997.6,N
1505651375.1,286046998.6,N
1505651376.0,286046998.6,N
1505651395.8,286046998.6,N
1505651415.7,286047000.9,N
1505651435.5,286046997.4,N
1505651455.3,286046999.4,N
1505651475.1,286046997.2,N
1505651495.9,286046998.8,N
1505651515.7,286047000.7,N
1505651535.5,286047002.7,N
1505651555.4,286047000.3,N
1505651575.2,286047003.7,N
1505651595.0,286047006.4,N
1505651595.9,286047006.4,N
1505651615.8,286047002.2,N
1505651635.6,286047001.8,N
1505651655.4,286047003.7,N
1505651675.3,286047002.5,N
1505651695.1,286047004.3,N
1505651696.0,286047004.3,N
1505651715.8,286047002.0,N
1505651735.7,286047000.0,N
1505651755.5,286047004.7,N
1505651775.3,286047004.1,N
1505651795.2,286046998.6,N
1505651815.9,286046996.6,N
1505651835.7,286046996.9,N
1505651855.6,286046999.6,N
1505651875.4,286046998.9,N
1505651895.2,286047000.8,N
1505651915.0,286046999.3,N
1505651915.9,286046999.3,N
1505651935.8,286046996.9,N
1505651955.6,286046993.3,N
1505651975.4,286046994.9,N
1505651995.3,286046994.7,N
1505652015.1,286046993.5,N
1505652035.8,286047000.8,N
1505652055.7,286046996.5,N
1505652075.5,286047001.2,N
1505652095.3,286046998.4,N
1505652115.2,286046998.6,N
1505652135.9,286046993.3,N
1505652155.7,286046995.3,N
1505652175.6,286046997.7,N
1505652195.4,286046997.4,N
1505652215.2,286046996.9,N
1505652235.1,286046993.3,N
1505652236.0,286046993.3,N
1505652255.8,286046997.4,N
1505652275.6,286046999.0,N
1505652295.5,286046998.8,N
1505652315.3,286046994.9,N
1505652335.1,286046997.3,N
1505652355.9,286046995.6,N
1505652375.7,286046999.6,N
1505652395.5,286046998.1,N
1505652415.3,286047001.2,N
1505652435.2,286047001.2,N
1505652455.0,286047001.1,N
1505652455.9,286047001.1,N
1505652475.7,286046995.1,N
1505652495.6,286046996.3,N
1505652515.4,286046994.1,N
1505652535.2,286046993.8,N
1505652555.1,286046995.2,N
1505652556.0,286046995.2,N
1505652575.8,286046999.2,N
1505652595.6,286046996.5,N
1505652615.5,286046998.4,N
1505652635.3,286047001.6,N
1505652655.1,286046998.9,N
1505652675.9,286046996.2,N
1505652695.7,286046991.7,Y
1505652715.5,286046997.7,P
1505652735.4,286046997.6,P
1505652755.2,286046995.8,P
1505652775.0,286046996.6,Y
1505652775.9,286046996.6,P
1505652795.8,286047001.5,P
1505652815.6,286046999.7,N
1505652835.4,286046998.1,N
1505652855.3,286046996.9,N
1505652875.1,286046999.8,N
1505652876.0,286046999.8,N
1505652895.8,286047002.0,N
1505652915.7,286047002.5,N
1505652935.5,286047004.2,N
1505652955.3,286047001.4,N
1505652975.2,286047005.1,N
1505652995.9,286047003.5,N
1505653015.7,286047003.4,N
1505653035.5,286047004.1,N
1505653055.4,286047002.2,N
1505653075.2,286047001.8,N
1505653095.0,286047004.3,N
1505653095.9,286047004.3,N
1505653115.8,286047003.2,N
1505653135.6,286047003.2,N
1505653155.4,286047000.0,N
1505653175.3,286047003.8,N
1505653195.1,286047004.8,N
1505653196.0,286047004.8,N
